{"data":{"norad_id":22195,"intl_designator":"1992-070B","name":"LAGEOS 2","alt_names":[],"object_type":"PAYLOAD","status":"ACTIVE","operator":null,"country":"IT","launch_date":"1992-10-22","launch_site_code":"AFETR","launch_vehicle":null,"mission":null,"orbit_class":"UNKNOWN","rcs_meters":0.3981,"size_class":null,"mass_kg":null,"dimensions":null,"purposes":["science"],"wikipedia_slug":null,"has_3d_model":false,"image_url":null,"decayed_at":null,"tle_current":{"epoch":"2026-05-24T08:54:32.488704Z","epoch_age_seconds":129718,"freshness":"FRESH","line1":"1 22195U 92070B   26144.37120936 -.00000009  00000+0  00000+0 0  9993","line2":"2 22195  52.6605 281.7119 0137771 176.8869 204.7538  6.47293592793886","mean_motion":6.47293592,"eccentricity":0.0137771,"inclination_deg":52.6605,"raan_deg":281.7119,"arg_perigee_deg":176.8869,"mean_anomaly_deg":204.7538,"bstar":0,"rev_number":79388,"period_min":222.46473899899,"perigee_km":5616.1946218848,"apogee_km":5951.3056929984,"semimajor_km":12161.887157442,"source":"CELESTRAK","updated_at":"2026-05-25T13:38:24.772590Z"}}}